1505260800.14,63409,15.94,73266.5,-0.63,-0.65,-0.65,0,*6D
1505260801.36,63410,15.94,73268.8,-0.61,-0.89,-0.89,0,*67
1505260802.62,63411,15.94,73268.8,-0.63,-0.85,-0.85,0,*64
1505260803.79,63412,15.94,73268.0,-0.61,-0.65,-0.65,0,*65
1505260804.97,63413,15.94,73264.5,-0.61,-0.57,-0.61,0,*61
1505260806.14,63414,15.94,73262.3,-0.61,-0.61,-0.65,0,*67
1505260807.32,63415,15.94,73262.8,-0.61,-0.65,-0.65,0,*62
1505260808.49,63416,15.94,73264.0,-0.57,-0.61,-0.61,0,*64
1505260809.66,63417,15.94,73270.3,-0.57,-0.61,-0.61,0,*65
1505260810.84,63418,15.94,73266.8,-0.57,-0.69,-0.69,0,*6A
1505260812.06,63419,15.94,73270.0,-0.57,-0.93,-0.85,0,*6C
1505260813.25,63420,15.94,73272.5,-0.57,-1.21,-1.21,0,*61
1505260814.47,63421,15.94,73268.0,-0.57,-1.35,-1.33,0,*66
1505260815.71,63422,15.94,73262.3,-0.57,-1.47,-1.43,0,*67
1505260816.92,63423,15.88,73262.3,-0.59,-1.55,-1.55,0,*6C
1505260818.17,63424,15.94,73266.3,-0.59,-1.47,-1.55,0,*68
1505260819.41,63425,15.94,73264.8,-0.57,-1.43,-1.43,0,*64
1505260820.66,63426,15.88,73264.3,-0.59,-1.33,-1.35,0,*6F
1505260821.88,63427,15.94,73268.0,-0.57,-1.33,-1.35,0,*60
1505260823.1,63428,15.94,73268.5,-0.57,-1.33,-1.35,0,*6F
1505260824.34,63429,15.94,73268.0,-0.59,-1.33,-1.35,0,*60
1505260825.57,63430,15.94,73268.8,-0.57,-1.33,-1.35,0,*66
1505260826.8,63431,15.94,73266.0,-0.57,-1.35,-1.35,0,*61
1505260828.07,63432,15.94,73274.8,-0.59,-1.35,-1.35,0,*6C
1505260829.29,63433,15.94,73274.8,-0.61,-1.39,-1.51,0,*68
1505260830.47,63434,15.94,73266.8,-0.61,-1.59,-1.59,0,*61
1505260831.66,63435,15.94,73262.8,-0.61,-1.51,-1.51,0,*60
1505260832.91,63436,15.94,73270.5,-0.61,-1.39,-1.39,0,*63
1505260834.09,63437,15.94,73270.8,-0.61,-1.25,-1.25,0,*62
1505260835.28,63438,15.94,73278.8,-0.61,-1.21,-1.21,0,*6D
1505260836.53,63439,15.94,73272.0,-0.59,-1.35,-1.33,0,*61
1505260837.75,63440,15.94,73276.0,-0.59,-1.71,-1.71,0,*69
1505260839.0,63441,15.94,73282.0,-0.59,-1.83,-1.79,0,*6D
1505260840.19,63442,15.94,73278.5,-0.61,-1.75,-1.75,0,*60
1505260841.39,63443,15.94,73280.8,-0.61,-1.71,-1.71,0,*61
1505260842.57,63444,15.94,73278.8,-0.61,-1.59,-1.59,0,*66
1505260843.75,63445,15.88,73274.8,-0.61,-1.63,-1.63,0,*67
1505260844.98,63446,15.94,73274.5,-0.63,-1.71,-1.71,0,*66
1505260846.2,63447,15.94,73266.3,-0.63,-1.71,-1.63,0,*64
1505260847.41,63448,15.94,73266.5,-0.63,-1.63,-1.63,0,*68
1505260848.63,63449,15.94,73266.5,-0.63,-1.51,-1.63,0,*68
1505260849.85,63450,15.94,73266.3,-0.63,-1.71,-1.71,0,*61
1505260851.12,63451,15.94,73266.5,-0.67,-1.87,-1.87,0,*64
1505260852.38,63452,15.94,73264.8,-0.63,-1.83,-1.95,0,*64
1505260853.65,63453,15.94,73264.5,-0.67,-1.91,-1.99,0,*6E
1505260854.83,63454,15.94,73266.8,-0.69,-2.19,-2.27,0,*62
1505260856.02,63455,15.88,73264.8,-0.69,-2.19,-2.31,0,*64
1505260857.24,63456,15.94,73264.8,-0.67,-2.23,-2.23,0,*63
1505260858.43,63457,15.94,73260.5,-0.69,-2.19,-2.19,0,*6C
1505260859.64,63458,15.88,73254.5,-0.71,-2.19,-2.19,0,*6A
1505260860.88,63459,15.88,73252.5,-0.73,-2.07,-2.11,0,*6E
1505260862.06,63460,15.94,73252.8,-0.73,-2.19,-2.19,0,*63
1505260863.25,63461,15.94,73256.8,-0.73,-2.19,-2.19,0,*62
1505260864.43,63462,15.94,73252.8,-0.73,-2.35,-2.39,0,*6D
1505260865.63,63463,15.94,73260.0,-0.73,-2.95,-2.95,0,*60
1505260866.81,63464,15.94,73264.3,-0.73,-3.07,-3.07,0,*67
1505260868.03,63465,15.94,73258.5,-0.77,-2.75,-2.87,0,*6F
1505260869.3,63466,15.94,73262.8,-0.79,-2.55,-2.63,0,*6A
1505260870.57,63467,15.94,73258.3,-0.79,-2.51,-2.63,0,*6F
1505260871.78,63468,15.94,73260.3,-0.81,-2.67,-2.79,0,*69
1505260873.02,63469,15.88,73262.3,-0.81,-2.67,-2.67,0,*67
1505260874.27,63470,15.94,73262.3,-0.81,-2.59,-2.67,0,*62
1505260875.5,63471,15.94,73262.0,-0.81,-2.59,-2.59,0,*6E
1505260876.77,63472,15.94,73260.8,-0.85,-2.51,-2.63,0,*68
1505260878.04,63473,15.94,73266.0,-0.85,-2.47,-2.47,0,*68
1505260879.3,63474,15.94,73260.5,-0.85,-2.51,-2.51,0,*6F
1505260880.51,63475,15.94,73262.5,-0.85,-2.35,-2.43,0,*6F
1505260881.72,63476,15.94,73264.5,-0.85,-2.31,-2.35,0,*69
1505260882.94,63477,15.94,73264.0,-0.85,-2.23,-2.31,0,*6F
1505260884.15,63478,15.94,73268.8,-0.85,-2.23,-2.23,0,*63
1505260885.36,63479,15.94,73268.0,-0.85,-2.19,-2.23,0,*6B
1505260886.57,63480,15.94,73264.0,-0.85,-2.19,-2.31,0,*6E
1505260887.78,63481,15.94,73264.3,-0.85,-2.19,-2.23,0,*6C
1505260888.99,63482,15.94,73268.0,-0.89,-2.27,-2.35,0,*69
1505260890.2,63483,15.94,73264.5,-0.89,-2.27,-2.27,0,*6B
1505260891.39,63484,15.94,73260.0,-0.91,-2.35,-2.35,0,*65
1505260892.6,63485,15.94,73262.8,-0.91,-2.35,-2.47,0,*61
1505260893.8,63486,15.94,73256.5,-0.91,-2.35,-2.39,0,*6B
1505260894.98,63487,15.94,73254.5,-0.91,-2.35,-2.35,0,*66
1505260896.2,63488,15.94,73254.3,-0.91,-2.39,-2.47,0,*60
1505260897.38,63489,15.94,73252.8,-0.91,-2.39,-2.39,0,*68
1505260898.65,63490,15.94,73254.3,-0.93,-2.51,-2.55,0,*66
1505260899.9,63491,15.94,73256.3,-0.93,-2.43,-2.51,0,*60
1505260901.1,63492,15.94,73260.5,-0.93,-2.39,-2.43,0,*6D
1505260902.31,63493,15.94,73256.5,-0.93,-2.39,-2.43,0,*6C
1505260903.52,63494,15.94,73252.5,-0.93,-2.31,-2.39,0,*6E
1505260904.71,63495,15.94,73250.3,-0.95,-2.39,-2.39,0,*61
1505260905.9,63496,15.94,73248.5,-0.95,-2.31,-2.39,0,*6A
1505260907.1,63497,15.94,73252.8,-0.95,-2.31,-2.39,0,*6B
1505260908.29,63498,15.94,73250.3,-0.95,-2.31,-2.31,0,*6C
1505260909.49,63499,15.94,73254.8,-0.95,-2.31,-2.31,0,*6D
1505260910.7,63500,15.94,73256.5,-0.93,-2.15,-2.15,0,*6A
1505260911.89,63501,15.94,73258.3,-0.95,-2.19,-2.19,0,*6D
1505260913.13,63502,15.94,73264.8,-0.93,-2.07,-2.15,0,*6B
1505260914.38,63503,15.94,73260.8,-0.95,-2.07,-2.03,0,*6B
1505260915.61,63504,15.94,73262.5,-0.95,-1.95,-1.95,0,*68
1505260916.8,63505,15.94,73264.0,-0.95,-2.15,-2.15,0,*69
1505260917.99,63506,15.94,73264.8,-0.95,-2.27,-2.27,0,*6A
1505260919.18,63507,15.94,73268.8,-0.95,-2.19,-2.19,0,*6B
1505260920.37,63508,15.94,73266.3,-0.95,-2.19,-2.31,0,*6E
1505260921.59,63509,15.94,73268.8,-0.97,-2.31,-2.31,0,*67
1505260922.81,63510,15.88,73266.8,-0.97,-2.19,-2.23,0,*66
1505260924.02,63511,15.94,73272.8,-0.97,-2.23,-2.31,0,*6D
1505260925.24,63512,15.94,73274.5,-0.97,-2.31,-2.31,0,*6D
1505260926.46,63513,15.94,73272.5,-0.99,-2.39,-2.47,0,*6B
1505260927.67,63514,15.94,73272.5,-0.99,-2.39,-2.47,0,*6C
1505260928.86,63515,15.94,73272.5,-0.99,-2.39,-2.39,0,*64
1505260930.07,63516,15.88,73272.3,-0.97,-2.35,-2.35,0,*69
1505260931.29,63517,15.94,73272.8,-0.97,-2.31,-2.35,0,*6C
1505260932.48,63518,15.88,73274.8,-0.99,-2.35,-2.27,0,*6A
1505260933.66,63519,15.88,73276.3,-0.99,-2.27,-2.27,0,*68
1505260934.85,63520,15.94,73282.5,-0.99,-2.23,-2.15,0,*67
1505260936.04,63521,15.94,73278.3,-0.99,-2.15,-2.23,0,*66
1505260937.23,63522,15.88,73276.8,-0.99,-2.15,-2.27,0,*61
1505260938.42,63523,15.94,73278.0,-0.99,-2.23,-2.27,0,*65
1505260939.6,63524,15.94,73278.5,-0.99,-2.23,-2.27,0,*62
1505260940.79,63525,15.94,73278.5,-0.99,-2.15,-2.15,0,*67
1505260942.01,63526,15.94,73280.3,-0.99,-2.15,-2.03,0,*63
1505260943.2,63527,15.94,73282.0,-0.99,-2.15,-2.15,0,*65
1505260944.39,63528,15.94,73282.3,-0.99,-2.15,-2.15,0,*6A
1505260945.61,63529,15.94,73280.8,-0.99,-2.11,-2.23,0,*6A
1505260946.8,63530,15.94,73280.8,-0.99,-2.23,-2.15,0,*66
1505260948.0,63531,15.94,73278.8,-0.99,-2.15,-2.23,0,*67
1505260949.19,63532,15.94,73276.0,-0.99,-2.15,-2.15,0,*61
1505260950.38,63533,15.94,73282.5,-0.99,-2.23,-2.15,0,*65
1505260951.62,63534,15.94,73278.5,-0.99,-2.11,-2.11,0,*67
1505260952.85,63535,15.94,73276.8,-1.01,-1.79,-1.79,0,*56
1505260954.1,63536,15.88,73276.8,-0.99,-1.99,-1.99,0,*65
1505260955.35,63537,15.94,73278.3,-1.01,-2.03,-2.15,0,*53
1505260956.6,63538,15.88,73272.5,-1.01,-2.11,-2.15,0,*5F
1505260957.82,63539,15.94,73278.0,-1.01,-2.15,-2.23,0,*5F
1505260959.05,63540,15.88,73274.0,-1.01,-2.15,-2.15,0,*54
1505260960.26,63541,15.94,73274.3,-1.01,-2.23,-2.27,0,*51
1505260961.49,63542,15.94,73272.8,-1.01,-2.15,-2.23,0,*53
1505260962.71,63543,15.94,73274.8,-1.01,-2.15,-2.15,0,*57
1505260963.99,63544,15.94,73276.3,-1.01,-2.11,-2.11,0,*50
1505260965.27,63545,15.94,73278.5,-1.01,-2.11,-2.11,0,*51
1505260966.46,63546,15.94,73274.8,-1.03,-2.15,-2.15,0,*50
1505260967.74,63547,15.94,73276.5,-1.01,-2.03,-2.03,0,*53
1505260969.01,63548,15.94,73274.8,-1.01,-2.03,-2.03,0,*5C
1505260970.29,63549,15.94,73260.5,-1.01,-2.11,-2.11,0,*5D
1505260971.56,63550,15.94,73262.5,-1.01,-1.91,-1.91,0,*55
1505260972.84,63551,15.88,73272.3,-1.01,-2.03,-1.99,0,*54
1505260974.12,63552,15.94,73276.0,-1.01,-2.11,-2.11,0,*57
1505260975.34,63553,15.94,73272.3,-1.01,-2.27,-2.27,0,*56
1505260976.53,63554,15.94,73276.0,-1.03,-2.15,-2.15,0,*53
1505260977.76,63555,15.94,73276.5,-0.99,-2.11,-2.23,0,*61
1505260979.03,63556,15.94,73268.5,-1.01,-2.03,-2.03,0,*53
1505260980.29,63557,15.94,73272.0,-1.03,-2.07,-2.07,0,*50
1505260981.48,63558,15.94,73276.3,-1.03,-2.15,-2.19,0,*53
1505260982.7,63559,15.88,73278.5,-1.01,-2.27,-2.39,0,*53
1505260983.91,63560,15.94,73280.8,-1.03,-2.31,-2.31,0,*54
1505260985.12,63561,15.94,73276.3,-1.01,-2.23,-2.27,0,*53
1505260986.32,63562,15.88,73274.8,-1.03,-2.27,-2.19,0,*5B
1505260987.51,63563,15.94,73278.3,-1.03,-2.27,-2.27,0,*57
1505260988.7,63564,15.94,73284.0,-1.03,-2.19,-2.19,0,*50
1505260989.9,63565,15.94,73280.0,-1.03,-2.15,-2.19,0,*5D
1505260991.1,63566,15.94,73280.5,-1.03,-2.15,-2.15,0,*52
1505260992.29,63567,15.94,73280.5,-1.03,-2.19,-2.19,0,*53
1505260993.49,63568,15.88,73282.0,-1.03,-2.19,-2.15,0,*50
1505260994.71,63569,15.94,73282.8,-1.05,-2.15,-2.19,0,*57
1505260995.96,63570,15.94,73286.8,-1.03,-2.07,-2.07,0,*55
1505260997.21,63571,15.94,73284.0,-1.03,-1.95,-2.07,0,*5C
1505260998.43,63572,15.94,73280.3,-1.01,-1.79,-1.79,0,*55
1505260999.63,63573,15.94,73280.3,-1.03,-1.75,-1.75,0,*56
1505261000.88,63574,15.94,73282.0,-1.03,-1.83,-1.83,0,*51
1505261002.07,63575,15.88,73282.3,-1.03,-2.27,-2.19,0,*5D
1505261003.27,63576,15.88,73280.8,-1.03,-2.27,-2.15,0,*52
1505261004.49,63577,15.94,73288.0,-1.01,-2.23,-2.23,0,*50
1505261005.68,63578,15.94,73284.3,-1.03,-2.15,-2.19,0,*51
1505261006.88,63579,15.94,73280.0,-1.03,-1.79,-1.79,0,*5C
1505261008.07,63580,15.94,73280.5,-1.03,-1.51,-1.51,0,*5A
1505261009.35,63581,15.88,73280.3,-1.01,-1.35,-1.35,0,*59
1505261010.62,63582,15.88,73280.0,-1.01,-1.35,-1.35,0,*5A
1505261011.84,63583,15.94,73282.0,-0.99,-1.47,-1.51,0,*6C
1505261013.02,63584,15.88,73278.5,-0.99,-1.59,-1.55,0,*60
1505261014.21,63585,15.88,73276.0,-0.99,-1.59,-1.63,0,*64
1505261015.39,63586,15.88,73276.3,-0.99,-1.59,-1.59,0,*6E
1505261016.61,63587,15.94,73282.0,-0.99,-1.51,-1.43,0,*6C
1505261017.88,63588,15.94,73280.5,-0.97,-1.47,-1.47,0,*6E
1505261019.06,63589,15.94,73280.8,-0.99,-1.63,-1.59,0,*68
1505261020.27,63590,15.94,73282.3,-0.97,-1.59,-1.67,0,*6A
1505261021.5,63591,15.94,73280.5,-0.97,-1.71,-1.71,0,*66
1505261022.74,63592,15.94,73280.8,-0.99,-1.87,-1.87,0,*6B
1505261024.0,63593,15.94,73288.0,-0.97,-1.95,-1.95,0,*64
1505261025.24,63594,15.94,73282.5,-0.99,-1.91,-1.87,0,*6A
1505261026.45,63595,15.94,73288.0,-0.97,-1.75,-1.75,0,*62
1505261027.67,63596,15.94,73280.0,-0.97,-1.71,-1.75,0,*65
1505261028.89,63597,15.94,73282.0,-0.97,-1.55,-1.55,0,*60
1505261030.1,63598,15.94,73280.0,-0.97,-1.55,-1.55,0,*6F
1505261031.31,63599,15.88,73280.0,-0.97,-1.55,-1.55,0,*6E
1505261032.58,63600,15.88,73280.0,-0.97,-1.43,-1.43,0,*6D
1505261033.8,63601,15.94,73280.8,-0.95,-1.33,-1.39,0,*64
1505261034.99,63602,15.94,73280.3,-0.95,-1.33,-1.29,0,*66
1505261036.19,63603,15.94,73278.8,-0.95,-1.21,-1.29,0,*64
1505261037.38,63604,15.94,73280.8,-0.95,-1.29,-1.29,0,*6B
1505261038.62,63605,15.94,73276.5,-0.95,-1.09,-1.09,0,*6A
1505261039.89,63606,15.94,73280.8,-0.93,-1.05,-1.05,0,*6F
1505261041.16,63607,15.94,73286.0,-0.93,-1.05,-1.05,0,*6E
1505261042.4,63608,15.94,73280.5,-0.91,-1.01,-1.01,0,*63
1505261043.66,63609,15.88,73280.0,-0.89,-1.01,-1.05,0,*6F
1505261044.91,63610,15.88,73280.5,-0.89,-0.93,-1.01,0,*59
1505261046.18,63611,15.94,73284.8,-0.89,-1.05,-1.05,0,*62
1505261047.41,63612,15.94,73286.8,-0.89,-1.13,-1.17,0,*65
1505261048.63,63613,15.94,73286.8,-0.89,-1.17,-1.17,0,*60
1505261049.85,63614,15.94,73284.8,-0.91,-1.17,-1.13,0,*6A
1505261051.05,63615,15.94,73286.0,-0.85,-1.25,-1.25,0,*6A
1505261052.26,63616,15.88,73282.5,-0.85,-1.59,-1.59,0,*69
1505261053.52,63617,15.94,73280.5,-0.85,-1.83,-1.83,0,*68
1505261054.78,63618,15.94,73280.3,-0.85,-1.83,-1.83,0,*67
1505261056.05,63619,15.94,73280.5,-0.85,-1.83,-1.83,0,*66
1505261057.25,63620,15.88,73282.3,-0.85,-1.59,-1.59,0,*6C
1505261058.46,63621,15.88,73282.3,-0.85,-1.59,-1.55,0,*61
1505261059.67,63622,15.94,73282.0,-0.89,-1.67,-1.63,0,*66
1505261060.88,63623,15.94,73278.0,-0.89,-1.79,-1.79,0,*63
1505261062.09,63624,15.94,73276.3,-0.89,-1.75,-1.75,0,*64
1505261063.3,63625,15.88,73280.5,-0.89,-1.67,-1.67,0,*65
1505261064.51,63626,15.94,73280.5,-0.89,-1.67,-1.63,0,*62
1505261065.71,63627,15.94,73280.3,-0.89,-1.59,-1.59,0,*67
1505261066.92,63628,15.94,73280.0,-0.89,-1.59,-1.59,0,*68
1505261068.1,63629,15.94,73282.0,-0.91,-1.59,-1.63,0,*69
1505261069.31,63630,15.88,73280.3,-0.85,-1.59,-1.59,0,*6D
1505261070.51,63631,15.88,73276.5,-0.85,-1.59,-1.59,0,*6C
1505261071.72,63632,15.94,73282.8,-0.89,-1.67,-1.67,0,*63
1505261072.93,63633,15.94,73282.3,-0.89,-1.67,-1.75,0,*61
1505261074.15,63634,15.94,73280.3,-0.89,-1.67,-1.67,0,*65
1505261075.36,63635,15.88,73280.0,-0.89,-1.67,-1.67,0,*64
1505261076.56,63636,15.88,73278.8,-0.91,-1.67,-1.67,0,*6E
1505261077.77,63637,15.94,73280.5,-0.89,-1.67,-1.67,0,*66
1505261078.98,63638,15.94,73280.5,-0.89,-1.67,-1.67,0,*69
1505261080.19,63639,15.94,73278.3,-0.89,-1.63,-1.75,0,*6F
1505261081.4,63640,15.94,73278.3,-0.89,-1.63,-1.63,0,*66
1505261082.62,63641,15.94,73274.5,-0.89,-1.79,-1.79,0,*67
1505261083.83,63642,15.94,73274.5,-0.91,-1.87,-1.79,0,*6C
1505261085.1,63643,15.94,73276.5,-0.89,-1.87,-1.87,0,*65
1505261086.34,63644,15.88,73274.0,-0.91,-1.87,-1.87,0,*6B
1505261087.59,63645,15.94,73276.8,-0.91,-1.99,-1.91,0,*62
1505261088.83,63646,15.94,73278.5,-0.91,-1.91,-1.99,0,*61
1505261090.07,63647,15.88,73272.8,-0.91,-1.91,-1.91,0,*68
1505261091.31,63648,15.88,73274.8,-0.91,-1.91,-1.99,0,*6F
1505261092.55,63649,15.88,73278.8,-0.91,-1.91,-1.91,0,*66
1505261093.82,63650,15.94,73278.3,-0.93,-1.95,-2.03,0,*60
1505261095.08,63651,15.88,73278.0,-0.93,-1.91,-1.91,0,*6D
1505261096.34,63652,15.88,73280.5,-0.93,-1.95,-2.03,0,*62
1505261097.59,63653,15.88,73282.8,-0.95,-2.07,-2.03,0,*6D
1505261098.86,63654,15.94,73284.8,-0.93,-2.03,-2.03,0,*68
1505261100.12,63655,15.94,73282.3,-0.93,-2.07,-2.03,0,*6D
1505261101.34,63656,15.88,73282.8,-0.95,-2.03,-2.15,0,*6B
1505261102.59,63657,15.88,73284.3,-0.95,-2.07,-2.07,0,*6D
1505261103.86,63658,15.94,73288.3,-0.93,-2.03,-2.07,0,*60
1505261105.1,63659,15.94,73288.3,-0.95,-2.03,-2.03,0,*63
1505261106.34,63660,15.94,73286.0,-0.95,-1.95,-1.95,0,*69
1505261107.58,63661,15.88,73284.8,-0.95,-2.03,-2.03,0,*68
1505261108.83,63662,15.94,73286.5,-0.95,-2.03,-2.03,0,*6B
1505261110.07,63663,15.94,73286.8,-0.95,-2.03,-2.07,0,*6E
1505261111.32,63664,15.94,73284.8,-0.95,-2.07,-2.07,0,*6D
1505261112.59,63665,15.88,73280.8,-0.97,-2.11,-2.07,0,*69
1505261113.87,63666,15.88,73286.0,-0.97,-1.99,-1.99,0,*6D
1505261115.11,63667,15.94,73286.8,-0.95,-2.03,-2.03,0,*6E
1505261116.38,63668,15.94,73284.0,-0.97,-1.99,-2.07,0,*67
1505261117.65,63669,15.94,73282.5,-0.97,-1.95,-1.99,0,*6E
1505261118.93,63670,15.88,73282.0,-0.97,-1.99,-1.99,0,*6A
1505261120.17,63671,15.88,73280.3,-0.99,-2.03,-2.03,0,*65
1505261121.42,63672,15.94,73282.3,-0.99,-1.99,-1.99,0,*66
1505261122.69,63673,15.94,73286.0,-0.97,-1.95,-2.07,0,*61
1505261123.94,63674,15.88,73280.3,-0.99,-1.99,-2.11,0,*63
1505261125.13,63675,15.94,73284.3,-0.99,-2.15,-2.15,0,*61
1505261126.34,63676,15.94,73286.0,-0.99,-2.15,-2.11,0,*66
1505261127.59,63677,15.94,73290.3,-0.99,-2.03,-2.11,0,*60
1505261128.85,63678,15.88,73284.3,-0.97,-2.07,-2.11,0,*65
1505261130.07,63679,15.88,73288.5,-0.99,-2.35,-2.47,0,*68
1505261131.32,63680,15.88,73284.8,-0.99,-2.47,-2.47,0,*6B
1505261132.56,63681,15.88,73288.5,-1.01,-2.67,-2.79,0,*55
1505261133.84,63682,15.94,73286.5,-1.01,-2.67,-2.75,0,*5A
1505261135.09,63683,15.94,73286.0,-1.03,-2.55,-2.55,0,*5A
1505261136.37,63684,15.94,73288.0,-1.01,-2.47,-2.47,0,*5F
1505261137.59,63685,15.94,73286.8,-1.03,-2.39,-2.51,0,*52
1505261138.78,63686,15.88,73282.0,-1.03,-2.43,-2.43,0,*5F
1505261139.98,63687,15.88,73278.3,-1.03,-2.43,-2.39,0,*53
1505261141.17,63688,15.88,73280.8,-1.03,-2.31,-2.39,0,*59
1505261142.4,63689,15.94,73286.0,-1.05,-2.31,-2.39,0,*5E
1505261143.61,63690,15.94,73288.0,-1.05,-2.27,-2.27,0,*5E
1505261144.81,63691,15.94,73284.5,-1.07,-2.35,-2.35,0,*5D
1505261146.03,63692,15.94,73284.0,-1.05,-2.27,-2.31,0,*5B
1505261147.23,63693,15.94,73282.3,-1.07,-2.35,-2.35,0,*5F
1505261148.45,63694,15.88,73282.0,-1.05,-2.27,-2.27,0,*5A
1505261149.66,63695,15.88,73286.0,-1.05,-2.15,-2.27,0,*5A
1505261150.86,63696,15.88,73282.8,-1.07,-2.19,-2.23,0,*53
1505261152.06,63697,15.94,73286.0,-1.07,-2.23,-2.23,0,*5B
1505261153.28,63698,15.88,73286.5,-1.05,-2.19,-2.27,0,*5B
1505261154.49,63699,15.94,73286.5,-1.07,-2.31,-2.31,0,*55
1505261155.69,63700,15.88,73286.5,-1.07,-2.43,-2.23,0,*52
1505261156.89,63701,15.88,73284.8,-1.07,-2.23,-2.23,0,*55
1505261158.09,63702,15.94,73286.0,-1.07,-2.23,-2.31,0,*55
1505261159.3,63703,15.94,73284.5,-1.07,-2.31,-2.31,0,*57
1505261160.49,63704,15.88,73282.3,-1.11,-2.23,-2.23,0,*57
1505261161.69,63705,15.94,73284.3,-1.11,-2.23,-2.31,0,*55
1505261162.91,63706,15.94,73282.5,-1.13,-2.35,-2.27,0,*54
1505261164.11,63707,15.94,73282.5,-1.11,-2.23,-2.31,0,*57
1505261165.31,63708,15.88,73282.5,-1.11,-2.31,-2.23,0,*58
1505261166.51,63709,15.94,73284.3,-1.11,-2.23,-2.31,0,*59
1505261167.74,63710,15.88,73286.8,-1.13,-2.35,-2.35,0,*50
1505261168.96,63711,15.88,73286.5,-1.13,-2.35,-2.35,0,*51
1505261170.18,63712,15.94,73288.5,-1.13,-2.27,-2.35,0,*51
1505261171.4,63713,15.94,73288.3,-1.13,-2.35,-2.39,0,*5F
1505261172.65,63714,15.88,73284.5,-1.13,-2.39,-2.47,0,*5D
1505261173.87,63715,15.94,73288.0,-1.13,-2.35,-2.39,0,*59
1505261175.09,63716,15.94,73288.8,-1.13,-2.35,-2.39,0,*5A
1505261176.32,63717,15.88,73284.3,-1.13,-2.35,-2.39,0,*5B
1505261177.54,63718,15.94,73288.8,-1.13,-2.23,-2.27,0,*5C
1505261178.76,63719,15.94,73288.8,-1.13,-2.23,-2.35,0,*5E
1505261179.98,63720,15.94,73288.3,-1.13,-2.35,-2.39,0,*5F
1505261181.2,63721,15.88,73288.8,-1.13,-2.35,-2.27,0,*51
1505261182.42,63722,15.94,73288.0,-1.13,-2.35,-2.39,0,*5D
1505261183.65,63723,15.88,73290.8,-1.13,-2.27,-2.39,0,*5F
1505261184.84,63724,15.94,73290.5,-1.15,-2.27,-2.27,0,*51
1505261186.04,63725,15.88,73288.5,-1.15,-2.27,-2.35,0,*53
1505261187.24,63726,15.88,73286.8,-1.15,-2.35,-2.35,0,*53
1505261188.48,63727,15.88,73286.8,-1.17,-2.51,-2.51,0,*50
1505261189.77,63728,15.88,73286.5,-1.13,-2.47,-2.51,0,*5C
1505261191.03,63729,15.88,73284.5,-1.15,-2.47,-2.51,0,*5B
1505261192.27,63730,15.88,73280.8,-1.15,-2.59,-2.59,0,*54
1505261193.52,63731,15.88,73280.3,-1.17,-2.63,-2.63,0,*57
1505261194.78,63732,15.88,73282.5,-1.15,-2.63,-2.71,0,*55
1505261196.02,63733,15.88,73278.0,-1.17,-2.67,-2.75,0,*56
1505261197.26,63734,15.88,73282.0,-1.17,-2.75,-2.75,0,*52
1505261198.5,63735,15.88,73278.0,-1.17,-2.67,-2.67,0,*53
1505261199.77,63736,15.88,73276.5,-1.19,-2.55,-2.55,0,*5E
1505261201.04,63737,15.88,73276.8,-1.19,-2.51,-2.55,0,*5B
1505261202.31,63738,15.88,73272.8,-1.19,-2.55,-2.55,0,*50
1505261203.55,63739,15.88,73270.8,-1.19,-2.43,-2.55,0,*56
1505261204.8,63740,15.88,73274.0,-1.19,-2.43,-2.51,0,*5C
1505261206.05,63741,15.88,73270.8,-1.21,-2.47,-2.47,0,*55
1505261207.24,63742,15.88,73272.3,-1.21,-2.43,-2.35,0,*57
1505261208.43,63743,15.88,73272.0,-1.21,-2.43,-2.35,0,*56
1505261209.62,63744,15.88,73272.5,-1.21,-2.31,-2.43,0,*55
1505261210.81,63745,15.88,73274.8,-1.21,-2.35,-2.43,0,*50
1505261212.0,63746,15.88,73272.0,-1.21,-2.35,-2.35,0,*52
1505261213.2,63747,15.88,73276.8,-1.21,-2.35,-2.35,0,*53
1505261214.39,63748,15.88,73276.0,-1.21,-2.31,-2.31,0,*5C
1505261215.59,63749,15.88,73274.5,-1.21,-2.23,-2.31,0,*5E
1505261216.8,63750,15.88,73272.5,-1.19,-2.27,-2.27,0,*5E
1505261218.0,63751,15.88,73268.5,-1.21,-2.23,-2.31,0,*57
1505261219.19,63752,15.88,73274.0,-1.21,-2.23,-2.31,0,*54
1505261220.38,63753,15.88,73272.0,-1.21,-2.19,-2.23,0,*5F
1505261221.58,63754,15.88,73274.8,-1.21,-2.23,-2.23,0,*51
1505261222.77,63755,15.88,73276.3,-1.21,-2.19,-2.23,0,*59
1505261223.97,63756,15.88,73276.5,-1.21,-2.19,-2.23,0,*5A
1505261225.23,63757,15.88,73278.3,-1.19,-2.07,-2.11,0,*5E
1505261226.45,63758,15.88,73278.8,-1.19,-2.19,-2.19,0,*56
1505261227.64,63759,15.88,73272.5,-1.21,-2.19,-2.19,0,*5C
1505261228.86,63760,15.94,73282.8,-1.21,-2.11,-2.19,0,*5E
1505261230.11,63761,15.88,73280.3,-1.21,-2.07,-2.07,0,*57
1505261231.38,63762,15.88,73278.5,-1.19,-2.03,-2.03,0,*5F
1505261232.63,63763,15.88,73278.8,-1.21,-2.03,-2.07,0,*51
1505261233.89,63764,15.88,73282.3,-1.19,-1.95,-1.95,0,*59
1505261235.14,63765,15.88,73280.5,-1.21,-1.99,-1.99,0,*53
1505261236.4,63766,15.88,73278.8,-1.19,-1.95,-1.95,0,*5B
1505261237.65,63767,15.88,73280.5,-1.21,-2.07,-2.07,0,*51
1505261238.9,63768,15.88,73280.8,-1.21,-1.99,-1.99,0,*5E
1505261240.18,63769,15.88,73282.3,-1.19,-2.03,-2.07,0,*50
1505261241.45,63770,15.88,73282.3,-1.19,-2.03,-2.03,0,*5C
1505261242.67,63771,15.88,73282.5,-1.21,-2.07,-2.19,0,*59
1505261243.91,63772,15.88,73280.5,-1.19,-2.07,-2.15,0,*5D
1505261245.14,63773,15.88,73282.5,-1.21,-2.11,-2.19,0,*5C
1505261246.38,63774,15.88,73282.3,-1.19,-2.07,-2.15,0,*5B
1505261247.57,63775,15.94,73282.3,-1.21,-2.19,-2.19,0,*52
1505261248.82,63776,15.94,73282.5,-1.19,-2.07,-2.15,0,*59
1505261250.01,63777,15.88,73280.0,-1.21,-2.19,-2.19,0,*50
1505261251.2,63778,15.88,73280.5,-1.21,-2.35,-2.35,0,*5F
1505261252.39,63779,15.88,73282.3,-1.21,-2.23,-2.31,0,*5D
1505261253.59,63780,15.88,73280.5,-1.21,-2.23,-2.23,0,*58
1505261254.78,63781,15.88,73280.5,-1.21,-2.23,-2.19,0,*50
1505261255.97,63782,15.94,73284.0,-1.21,-2.31,-2.35,0,*5E
1505261257.19,63783,15.88,73282.5,-1.19,-2.31,-2.39,0,*58
1505261258.39,63784,15.88,73278.8,-1.21,-2.23,-2.31,0,*5F
1505261259.58,63785,15.88,73282.0,-1.21,-2.23,-2.23,0,*5D
1505261260.8,63786,15.88,73284.5,-1.19,-2.19,-2.19,0,*55
1505261262.02,63787,15.88,73286.3,-1.21,-2.11,-2.23,0,*5E
1505261263.21,63788,15.88,73286.0,-1.21,-2.19,-2.19,0,*50
1505261264.43,63789,15.88,73284.8,-1.21,-2.19,-2.07,0,*5E
1505261265.68,63790,15.94,73288.8,-1.21,-2.11,-2.11,0,*59
1505261266.93,63791,15.88,73288.8,-1.21,-2.11,-2.11,0,*58
1505261268.15,63792,15.88,73288.0,-1.21,-2.11,-2.19,0,*53
1505261269.4,63793,15.88,73286.5,-1.21,-2.11,-2.11,0,*5A
1505261270.65,63794,15.88,73288.8,-1.21,-1.99,-1.99,0,*5D
1505261271.91,63795,15.88,73290.3,-1.21,-1.99,-2.07,0,*58
1505261273.16,63796,15.94,73290.8,-1.21,-2.07,-2.07,0,*5F
1505261274.4,63797,15.88,73290.8,-1.21,-2.11,-2.11,0,*5E
1505261275.6,63798,15.88,73286.8,-1.21,-2.19,-2.19,0,*51
1505261276.81,63799,15.88,73288.0,-1.19,-2.15,-2.19,0,*57
1505261278.03,63800,15.88,73288.3,-1.21,-2.11,-2.19,0,*57
1505261279.22,63801,15.88,73290.8,-1.21,-2.19,-2.19,0,*5E
1505261280.47,63802,15.88,73292.8,-1.21,-2.11,-2.11,0,*5D
1505261281.7,63803,15.88,73292.0,-1.21,-2.11,-2.19,0,*54
1505261282.95,63804,15.88,73290.3,-1.21,-2.07,-2.07,0,*5B
1505261284.22,63805,15.88,73290.8,-1.19,-2.03,-2.03,0,*51
1505261285.47,63806,15.88,73294.3,-1.21,-2.07,-2.07,0,*59
1505261286.71,63807,15.88,73292.0,-1.19,-2.15,-2.07,0,*50
1505261287.96,63808,15.88,73292.5,-1.21,-2.07,-2.11,0,*50
1505261289.18,63809,15.88,73296.3,-1.21,-2.11,-2.19,0,*5E
1505261290.43,63810,15.88,73294.5,-1.21,-2.11,-2.11,0,*5E
1505261291.67,63811,15.88,73294.8,-1.21,-2.07,-2.11,0,*58
1505261292.92,63812,15.88,73292.3,-1.21,-2.11,-2.11,0,*5C
1505261294.14,63813,15.88,73292.8,-1.21,-2.19,-2.11,0,*55
1505261295.33,63814,15.88,73294.3,-1.21,-2.19,-2.19,0,*5A
1505261296.55,63815,15.88,73292.8,-1.21,-2.11,-2.19,0,*53
1505261297.8,63816,15.88,73296.3,-1.21,-2.11,-2.11,0,*58
1505261299.05,63817,15.88,73296.5,-1.21,-1.95,-1.99,0,*55
1505261300.3,63818,15.88,73296.3,-1.21,-2.07,-2.07,0,*56
1505261301.54,63819,15.88,73296.3,-1.21,-2.07,-2.11,0,*50
1505261302.79,63820,15.88,73296.8,-1.19,-2.15,-2.07,0,*55
1505261303.98,63821,15.88,73298.8,-1.21,-2.19,-2.19,0,*5C
1505261305.17,63822,15.88,73292.3,-1.21,-2.19,-2.19,0,*5F